Other Surface Observations
Issued by NWS

Home | Current Version | Previous Version | Text Only | Print | Product List | Glossary On
Versions: 1 2 3 4 5 6 7 8 9 10 11 12 13 14 15 16 17 18 19 20 21 22 23 24 25 26 27 28 29 30 31 32 33 34 35 36 37 38 39 40 41 42 43 44 45 46 47 48 49 50
000
SXUS52 KTAE 222118
OSOTAE
OSOTAE
North Florida/South Alabama/Southwest Georgia Weather Roundup
National Weather Service Tallahassee Florida
500 PM EDT FRI AUG 22 2014

Note: "fair" indicates few or no clouds below 12,000 feet with no
significant weather and/or obstructions to visibility.

!FLZ017-115-028-034-025-222200
...North Florida...

CITY           SKY/WX    TMP DP  RH WIND       PRES   REMARKS
TALLAHASSEE    MOSUNNY  100  68  35 NE3       30.00F HX 105
APALACHICOLA   LGT RAIN  77  72  84 N7        30.03F
PERRY          SUNNY     95  68  41 CALM      30.00S HX  99
CROSS CITY       N/A     90  77  65 SW6       30.00S HX 103
HOMERVILLE     FAIR     100  70  37 CALM      29.98F HX 107
JACKSONVILLE   MOSUNNY   98  68  37 NE6       29.96F HX 103
$$

!FLZ112-006-005-002-011-222200
...Florida Panhandle...

CITY           SKY/WX    TMP DP  RH WIND       PRES   REMARKS
MARIANNA       MOSUNNY   98  72  42 MISG      30.00F HX 107
BONIFAY        FAIR      95  73  48 CALM      30.01F HX 104
PANAMA CITY NW FAIR      86  77  74 S6        30.03R HX  97
TYNDALL AFB    LGT RAIN  78  74  86 W6        30.04F
TYND DRONE APT LGT RAIN  79  74  86 W5        30.02F
DE FUNIAK SPR  FAIR      95  71  46 CALM      30.03S HX 102
EGLIN AFB      PTSUNNY   94  74  52 SW9       30.01F HX 104
DESTIN         MOSUNNY   93  75  55 SW7       30.02F HX 104
HURLBURT       MOSUNNY   94  71  48 SW12      30.01F HX 101
CRESTVIEW      MOSUNNY   99  72  41 NE6       30.03F HX 108
PENSACOLA      CLOUDY    90  74  59 S9        30.02F HX  99
$$

!ALZ063-066-222200
...South Alabama...

CITY           SKY/WX    TMP DP  RH WIND       PRES   REMARKS
DOTHAN         MOSUNNY   95  71  45 N5        30.05F HX 102
OZARK CAIRNS   MOSUNNY   96  69  41 N5        30.01F HX 102
FT RUCKER HELI MOSUNNY   97  69  40 NW8       30.00F HX 103
RUCKER HELI 3  FAIR      95  69  41 NW7       30.04F HX 100
RUCKER HELI 2  FAIR      97  70  41 N8        30.01F HX 103
FLORALA APT    SUNNY     97  71  42 N5        30.03F HX 104
ANDALUSIA      PTSUNNY  100  71  39 N6        30.02F HX 108
TROY           MOSUNNY   96  70  42 VRB5      30.03F HX 102
EUFALA         FAIR      96  70  42 CALM      30.00F HX 102
MOBILE         MOSUNNY   95  70  44 CALM      30.04F HX 101
$$

!GAZ120>161-222200
...Southwest and South Central Georgia...

CITY           SKY/WX    TMP DP  RH WIND       PRES   REMARKS
THOMASVILLE    FAIR      97  70  41 CALM      30.01F HX 103
BAINBRIDGE     SUNNY    100  73  41 W6        30.00S HX 111
MOODY AFB      SUNNY     96  69  41 W6        29.99F HX 102
VALDOSTA       MOSUNNY   98  66  34 CALM      29.99F HX 101
MOULTRIE       SUNNY     97  70  41 NW5       30.00F HX 103
BLAKELY        SUNNY     99  70  39 W7          N/A  HX 105
ALBANY         MOSUNNY   97  69  40 VRB6      30.00F HX 103
TIFTON         FAIR      96  65  36 NW5       29.98F HX  98
FITZGERALD     MOCLDY    97  69  39 CALM      30.01F HX 102
CORDELE        FAIR      99  67  35 N5        29.99F HX 103
AMERICUS       FAIR      97  68  38 N8        30.01F HX 101
$$

!GMZ750-755-770-775-222200
...Coastal and Buoy Obs...

STATION/POSITION TIME  TEMP    WIND        PRES    VSBY  WAVE
                       AIR SEA DIR/SP/G                  HT/PER
                 (UTC) (F)     (DEG/KT/KT) (MB)    (MI)  (FT/S)
KEATON BEACH     2100   89     250/  9/ 10 1016.2F
CEDAR KEY        2100   81      70/ 11/ 13 1017.5R
C TOWER          2100   84     330/ 17/ 20 1016.8F
APALACHICOLA BUO 2100   86 88  340/  4/  4 1016.9F         1
PANAMA CITY BUOY 2030   86 89  360/  6/  6 1017.3F         1/ 8
MOBILE BUOY      1955   86 90   40/  6/  8 1017.9F
ORANGE BCH AL BU 2100   87 89  220/  8/  8 1017.1F         1
$$



USA.gov is the U.S. government's official web portal to all federal, state and local government web resources and services.